Regional Weather Roundup
Issued by NWS Bismarck, ND

Home | Current Version | Previous Version | Text Only | Print | Product List | Glossary On
Versions: 1 2 3 4 5 6 7 8 9 10 11 12 13 14 15 16 17 18 19 20 21 22 23 24 25 26 27 28 29 30 31 32 33 34 35 36 37 38 39 40 41 42 43 44 45 46 47 48 49 50
000
ASUS43 KBIS 130810
RWRBIS

NWR BROADCAST TEXT
NATIONAL WEATHER SERVICE BISMARCK ND
200 AM CST WED DEC 13 2017

NOTE: "FAIR" INDICATES FEW OR NO CLOUDS BELOW 12,000 FEET WITH NO
SIGNIFICANT WEATHER AND/OR OBSTRUCTIONS TO VISIBILITY.


CITY           SKY/WX    TMP DP  RH WIND       PRES   REMARKS
WILLISTON      FAIR      38  28  67 NW25G35   29.85R
MINOT          FAIR      39  30  70 W29G38    29.67R
MINOT AFB      PTCLDY    38  29  72 NW28G39   29.65R
BISMARCK       LGT RAIN  42  32  67 NW26G40   29.68R
DICKINSON      FAIR      39  25  57 NW25G37   29.78R
GARRISON         N/A     39  30  70 NW24G36   29.68R
HETTINGER ARPT CLEAR     42  23  46 NW31G43   29.82R
JAMESTOWN      LGT RAIN  37  35  92 NW25G33   29.51R
CARRINGTON     LGT RAIN  37  36  93 NW22G28   29.57R
HAZEN          CLOUDY    43  30  61 NW29G37   29.74R
LINTON           N/A     43  28  56 NW29G36   29.66R
MANDAN         CLOUDY    41  30  65 NW25G38   29.68R
OAKES            N/A     41  28  60 NW28G33   29.48R
RUGBY          FAIR      34  34 100 NW24G30   29.58R
STANLEY        FAIR      36  32  87 NW25G33   29.75S
TIOGA          FAIR      36  32  87 NW26G35   29.79R
WATFORD CITY   FAIR      37  28  70 NW17G30   29.84R
$$

CITY           SKY/WX    TMP DP  RH WIND       PRES   REMARKS
GRAND FORKS    CLOUDY    35  32  88 NW20G26   29.45R
GRAND FORKS AF PTCLDY    36  31  84 N21       29.46R
DEVILS LAKE    CLOUDY    35  32  88 NW17      29.53R
FARGO          CLOUDY    37  30  75 NW15      29.41R
CANDO          FAIR      36  36 100 NW20G28   29.57R
CAVALIER       PTSUNNY   25  23  93 N18G30    29.52R WCI  11
GRAFTON        FAIR      30  27  86 N26G37    29.51R WCI  16
GWINNER          N/A     41  28  60 NW21G31   29.45R
LANGDON        CLOUDY    34  34 100 N25G32    29.51R
ROLLA          FAIR      34  32  93 NW22G30   29.57R
WALHALLA       FAIR      28  28 100 N21       29.53R WCI  15
$$

CITY           SKY/WX    TMP DP  RH WIND       PRES   REMARKS
ABERDEEN       LGT RAIN  44  32  62 NW29G37   29.53R
MOBRIDGE       CLOUDY    48  29  47 NW25G44   29.63R
BUFFALO          N/A     44  23  43 NW38G44   29.83R
RAPID CITY     CLOUDY    51  16  24 NW37G46   29.91R
GLASGOW        CLEAR     38  24  57 NW20G30   30.02R
SIDNEY         CLEAR     39  26  59 NW23G32   29.90R
WOLF POINT     CLEAR     39  26  59 W15       30.00R
GLENDIVE       CLEAR     39  23  52 NW23G30   29.95R
MILES CITY     CLEAR     39  17  41 W14       30.05R
BAKER          CLEAR     41  24  51 NW26G37   29.93R
$$

CITY           SKY/WX    TMP DP  RH WIND       PRES   REMARKS
BILLINGS       CLEAR     46  11  24 NW22      30.16R
GREAT FALLS    CLEAR     33  11  39 W5        30.24F
REGINA         PTCLDY    34  28  80 NW17G23   29.87R
ESTEVAN        PTCLDY    34  28  80 NW22G30   29.78R
$$





USA.gov is the U.S. government's official web portal to all federal, state and local government web resources and services.